Wind_Speed
36 35 35 35 36 36 36 37 37 38 39 40 40 40 40 40 40 40 40 40 41 41 42 43 43 43 44 44 45 45 45 46 47 47 48 50 50 50 51 51 52 53 53
36 36 36 35 36 36 37 38 38 39 39 40 41 41 41 41 42 41 41 42 42 43 44 44 44 45 45 45 46 47 47 48 49 49 50 51 52 53 53 53 53 54 54
38 38 38 37 36 37 37 38 39 40 41 41 41 42 43 43 43 43 43 43 44 44 45 45 45 46 46 47 48 49 49 50 51 51 51 52 53 54 54 54 54 55 55
39 39 38 38 38 38 39 39 39 40 41 42 42 43 44 44 44 44 45 45 45 45 45 46 46 47 47 48 48 50 51 51 52 53 53 54 55 56 56 56 56 56 56
40 40 39 39 39 39 39 39 40 41 42 43 43 44 44 44 44 45 46 46 46 46 47 47 48 48 49 49 50 52 53 53 54 55 55 56 57 57 57 57 57 57 56
41 41 40 40 39 40 40 40 41 42 42 43 43 44 44 44 45 45 46 46 46 47 47 48 49 49 50 50 51 52 53 55 56 56 57 57 57 57 58 58 58 57 56
42 41 41 42 42 41 41 41 42 43 44 44 45 44 44 45 45 46 46 47 47 47 47 48 49 50 51 51 52 53 54 55 56 57 57 56 56 57 57 57 57 57 56
42 42 42 43 43 44 43 44 44 44 44 45 46 46 45 45 45 47 47 47 47 48 48 49 50 50 51 52 53 53 54 54 55 56 56 56 56 57 57 57 56 56 55
42 43 44 44 44 45 45 44 45 45 45 45 45 46 46 46 47 47 47 47 48 49 49 49 50 51 52 52 52 52 54 54 55 55 56 56 56 56 57 57 57 56 55
42 43 43 43 44 44 44 44 45 46 46 45 45 46 47 47 47 48 48 48 49 49 48 49 50 51 52 52 52 53 54 54 54 54 54 55 55 55 56 56 56 56 55
43 44 44 44 44 44 44 44 45 45 45 45 46 46 46 46 47 48 48 48 48 49 49 50 51 51 51 51 52 53 53 54 54 54 54 54 53 53 54 54 55 55 54
42 43 43 44 44 44 44 44 45 45 45 45 45 46 46 46 47 47 47 48 49 49 49 50 50 50 49 50 51 52 52 52 52 52 52 52 52 52 52 52 53 53 53
41 42 42 42 43 42 43 43 44 44 45 45 45 45 45 46 46 47 47 48 48 49 49 49 49 48 49 49 50 50 51 51 51 51 50 50 50 50 50 50 49 49 50
41 40 40 40 41 41 41 41 42 42 43 44 43 44 44 45 46 46 46 46 46 47 47 46 47 47 48 48 49 50 50 50 50 50 49 48 48 47 47 47 47 48 48
39 39 39 39 39 39 39 40 40 41 41 42 43 44 44 45 45 46 46 45 45 45 46 47 47 47 47 48 49 48 49 49 49 48 48 47 46 46 45 45 46 46 46
37 37 37 38 38 39 39 39 40 40 40 40 40 41 42 43 43 44 44 45 45 46 46 45 46 47 48 48 48 47 47 47 46 45 45 45 44 44 44 45 45 45 44
36 36 36 37 38 38 39 39 39 39 39 40 41 41 42 42 42 43 44 44 44 44 45 45 46 47 47 47 47 47 46 45 45 45 44 44 43 43 43 44 43 43 43
35 36 37 37 38 38 38 39 39 39 40 40 41 42 43 43 43 44 44 45 45 45 46 46 47 48 47 47 46 45 44 44 43 43 43 43 43 42 42 42 41 41 40
34 35 36 37 37 38 38 38 39 40 40 40 41 42 43 43 43 43 43 44 45 46 46 47 47 46 46 45 44 43 42 42 42 42 42 42 41 41 40 40 39 39 38
33 34 35 36 37 38 38 38 39 40 41 41 41 42 42 42 42 43 44 45 46 46 46 45 44 44 43 43 42 42 41 41 42 41 41 40 40 40 39 39 38 38 37
32 32 33 34 35 36 37 38 39 40 40 40 41 41 42 42 43 44 44 45 45 45 44 43 43 42 42 41 41 41 41 41 40 40 40 40 40 39 39 38 38 37 37
31 32 33 34 34 35 36 37 38 39 40 40 41 41 42 43 44 44 45 44 44 43 43 42 42 42 41 41 41 41 40 40 40 40 39 39 39 38 37 37 37 37 37
31 32 33 34 34 35 36 37 38 38 39 40 41 41 42 43 43 43 43 43 42 42 42 41 41 41 40 40 39 39 39 39 39 39 39 38 37 36 35 35 35 35 35
31 32 33 33 34 34 35 36 37 37 38 38 39 40 40 40 40 40 41 41 41 40 40 40 39 39 38 38 38 38 38 38 38 38 37 36 35 34 33 33 33 33 33
32 32 32 33 33 34 35 35 35 36 36 37 37 37 37 37 37 38 38 38 38 38 38 38 37 37 37 37 37 37 37 37 37 36 34 33 32 32 32 32 32 32 32
31 32 32 33 33 33 33 34 34 35 35 36 36 35 35 36 36 36 36 36 35 35 35 35 35 35 35 35 35 35 35 35 34 33 32 31 30 31 31 31 31 32 32
Wind_Direction
240 240 240 239 240 242 243 245 245 246 246 247 248 248 247 249 250 252 255 257 259 261 263 265 267 269 270 271 273 275 276 277 278 279 279 280 282 282 283 283 284 283 283
240 240 241 242 243 243 244 245 245 244 245 247 248 247 248 249 251 254 256 259 261 263 265 267 269 270 273 274 275 275 277 279 280 280 280 282 283 283 283 284 284 284 285
240 241 243 244 244 244 245 245 245 245 245 246 248 249 249 249 252 255 257 260 262 264 267 268 269 271 272 274 275 276 277 279 280 281 282 283 283 284 284 284 285 285 285
240 241 243 244 245 245 246 247 246 245 245 246 248 250 250 252 254 256 258 261 263 265 267 268 269 271 273 274 276 277 278 280 281 282 283 284 284 284 284 284 285 285 286
241 242 243 244 245 247 248 249 248 247 247 248 250 252 253 255 257 259 261 263 264 266 268 269 271 272 274 276 277 279 279 280 282 283 284 284 285 285 285 285 285 285 286
241 242 243 244 247 248 249 249 249 250 251 251 252 254 254 257 259 262 263 264 266 268 269 270 272 274 276 277 279 280 281 282 283 284 284 285 286 286 287 287 286 286 285
242 242 243 246 248 249 249 249 250 250 251 252 253 254 255 258 260 262 264 265 267 269 270 271 273 275 276 278 280 281 282 283 284 284 285 285 285 286 287 287 286 286 286
243 244 246 247 248 249 249 250 250 250 252 253 255 256 257 259 262 263 264 266 268 270 271 272 274 276 277 279 281 281 283 283 284 285 285 286 286 287 287 287 286 286 286
244 246 248 249 249 248 250 251 251 252 253 255 256 257 258 260 263 263 264 266 268 269 272 274 275 277 278 280 281 282 283 283 285 285 286 287 287 287 287 287 286 286 286
245 246 248 249 250 250 251 253 254 254 255 256 257 258 259 261 263 264 265 267 269 271 273 275 277 278 280 281 282 283 284 284 286 287 288 288 288 287 287 287 287 287 286
246 247 249 251 252 253 254 254 254 256 257 258 259 260 261 262 264 265 267 268 269 271 273 275 277 279 280 281 282 283 284 286 287 288 288 288 288 287 287 287 287 287 287
248 248 250 252 253 254 255 255 256 257 259 260 260 261 262 263 264 266 267 268 269 271 273 276 278 279 281 282 283 284 286 288 288 289 289 288 288 287 287 286 287 287 287
250 251 252 253 254 254 255 256 257 258 258 260 261 261 262 264 266 267 268 270 271 273 275 277 278 280 281 282 284 286 287 288 289 290 290 289 289 288 288 288 288 288 289
251 252 253 253 253 254 254 255 256 257 258 259 261 262 263 264 265 267 269 271 273 275 276 277 279 281 282 284 286 287 288 289 289 290 291 290 290 289 289 289 289 289 290
251 252 252 253 254 254 254 255 256 257 260 261 262 263 264 265 267 268 271 273 274 276 277 279 280 281 283 285 286 287 288 288 289 289 290 289 289 290 290 290 290 290 291
250 251 252 253 254 255 255 257 258 260 261 262 262 264 266 267 268 270 272 273 275 277 279 280 282 283 284 285 286 286 286 287 288 288 288 288 289 289 290 290 291 291 291
250 251 252 254 255 256 257 258 260 260 261 262 263 265 267 269 270 271 273 275 277 278 280 281 283 284 285 285 285 285 285 286 286 287 288 289 288 289 290 291 291 291 291
251 252 254 255 256 257 258 259 260 261 263 264 265 267 269 271 272 273 274 275 277 279 281 282 283 284 284 284 285 285 284 284 285 287 288 289 289 290 290 291 290 291 291
252 253 255 256 256 257 259 260 261 262 264 265 266 268 270 272 273 273 274 276 278 280 281 282 283 283 283 283 283 283 284 284 285 286 288 289 289 290 290 290 290 291 292
254 255 256 257 258 259 259 261 262 263 264 265 267 268 270 271 273 274 275 277 279 280 282 282 282 282 282 281 282 282 283 285 285 286 287 288 289 289 290 289 289 290 291
258 259 259 260 260 260 261 262 263 264 265 266 268 270 272 273 273 275 276 278 279 280 280 280 280 281 281 281 281 282 283 285 286 287 287 287 288 289 289 289 289 290 291
262 262 263 263 263 264 265 265 265 266 267 268 269 271 272 274 275 276 278 278 278 278 278 278 279 280 281 281 281 281 282 283 285 286 287 287 288 288 288 289 290 290 292
265 266 267 267 267 267 268 268 268 268 269 270 271 272 273 274 276 277 277 278 278 278 277 278 279 279 280 281 281 281 281 282 284 285 286 286 286 286 287 288 290 291 292
268 268 268 268 269 268 269 269 269 269 270 271 272 273 274 276 277 277 278 278 278 277 278 278 278 278 279 280 280 281 282 283 284 286 285 284 284 284 285 287 290 291 292
269 269 269 269 269 269 269 270 270 271 271 272 273 274 274 276 277 277 278 278 278 278 278 278 277 277 278 279 279 280 281 282 283 283 283 283 282 282 284 286 289 291 293
270 271 270 269 269 270 270 271 271 272 272 273 273 274 275 275 277 278 279 278 277 277 277 277 278 278 278 279 279 279 279 280 281 281 280 280 280 282 284 287 289 291 292
Height
5658 5661 5665 5668 5672 5675 5678 5682 5685 5689 5692 5695 5698 5701 5704 5706 5709 5711 5713 5715 5716 5717 5718 5719 5719 5719 5719 5719 5718 5717 5717 5716 5716 5716 5714 5712 5710 5708 5706 5704 5702 5700 5697
5651 5654 5657 5660 5664 5667 5670 5674 5677 5680 5683 5686 5689 5691 5694 5697 5699 5702 5703 5705 5706 5707 5708 5708 5708 5708 5708 5707 5706 5706 5705 5704 5703 5703 5702 5699 5697 5694 5692 5690 5687 5685 5682
5643 5646 5649 5653 5656 5659 5662 5665 5667 5670 5673 5676 5679 5681 5684 5687 5690 5692 5693 5695 5696 5697 5697 5697 5697 5697 5696 5696 5695 5694 5692 5691 5690 5689 5688 5686 5683 5680 5678 5675 5673 5670 5667
5635 5638 5641 5645 5647 5650 5653 5655 5657 5660 5663 5666 5669 5671 5674 5677 5679 5681 5683 5684 5685 5685 5686 5686 5686 5685 5684 5684 5683 5681 5680 5678 5676 5674 5673 5671 5669 5665 5662 5660 5658 5655 5652
5626 5629 5633 5636 5638 5641 5643 5645 5648 5650 5653 5656 5658 5661 5664 5666 5669 5670 5671 5673 5673 5674 5674 5674 5673 5673 5672 5671 5669 5668 5666 5664 5662 5660 5657 5655 5653 5650 5646 5643 5641 5639 5636
5616 5620 5623 5626 5629 5631 5633 5635 5638 5640 5643 5646 5648 5650 5653 5655 5657 5659 5660 5661 5661 5661 5662 5661 5661 5660 5659 5657 5656 5654 5652 5649 5647 5644 5642 5639 5637 5633 5630 5627 5624 5622 5621
5606 5610 5613 5616 5619 5621 5623 5625 5628 5630 5632 5635 5638 5640 5642 5644 5645 5646 5647 5648 5648 5649 5649 5648 5647 5646 5645 5644 5642 5640 5637 5633 5631 5629 5626 5624 5621 5618 5614 5611 5607 5604 5603
5596 5600 5603 5606 5608 5610 5613 5615 5617 5619 5621 5624 5626 5628 5630 5631 5632 5633 5634 5635 5635 5636 5635 5634 5634 5633 5631 5629 5627 5625 5623 5620 5617 5614 5611 5608 5605 5601 5597 5594 5591 5589 5588
5586 5589 5592 5594 5597 5599 5602 5604 5606 5608 5610 5612 5614 5616 5618 5619 5620 5621 5622 5622 5622 5622 5622 5621 5620 5618 5616 5614 5613 5611 5609 5606 5602 5599 5595 5592 5589 5585 5581 5578 5576 5574 5573
5575 5578 5580 5582 5585 5588 5590 5592 5594 5596 5598 5600 5602 5604 5605 5607 5608 5608 5609 5609 5610 5609 5608 5607 5605 5603 5601 5599 5598 5596 5593 5591 5588 5584 5581 5577 5573 5569 5566 5562 5560 5558 5556
5564 5566 5569 5571 5574 5576 5578 5580 5582 5584 5586 5588 5590 5591 5593 5594 5595 5595 5595 5596 5596 5595 5594 5593 5592 5589 5587 5585 5583 5580 5578 5575 5572 5569 5566 5562 5558 5555 5551 5548 5544 5542 5540
5553 5555 5558 5560 5562 5564 5567 5569 5571 5573 5575 5576 5577 5579 5580 5581 5582 5582 5582 5582 5582 5582 5581 5579 5578 5575 5573 5571 5569 5566 5563 5561 5558 5554 5551 5548 5544 5541 5537 5534 5531 5528 5525
5542 5544 5546 5549 5551 5553 5555 5557 5559 5561 5563 5565 5566 5567 5568 5569 5569 5569 5569 5569 5569 5568 5567 5566 5564 5562 5560 5557 5555 5552 5549 5547 5543 5540 5537 5533 5530 5526 5523 5520 5517 5514 5511
5531 5533 5536 5538 5540 5542 5544 5546 5548 5550 5551 5553 5554 5555 5556 5557 5557 5557 5557 5557 5556 5555 5554 5552 5551 5549 5546 5544 5541 5539 5535 5533 5530 5527 5524 5520 5516 5513 5510 5507 5504 5501 5499
5521 5523 5525 5527 5530 5532 5534 5535 5537 5539 5540 5541 5543 5544 5545 5545 5545 5545 5545 5545 5544 5543 5541 5540 5538 5536 5534 5531 5528 5525 5522 5520 5517 5514 5510 5507 5504 5501 5498 5495 5492 5489 5486
5510 5513 5515 5517 5519 5521 5523 5525 5526 5528 5529 5530 5531 5532 5532 5533 5533 5533 5532 5532 5531 5530 5528 5527 5525 5523 5520 5518 5515 5513 5510 5507 5504 5501 5498 5495 5493 5490 5487 5484 5480 5477 5474
5501 5503 5505 5507 5509 5511 5513 5514 5516 5517 5518 5519 5519 5520 5520 5521 5521 5521 5520 5520 5518 5517 5516 5514 5512 5510 5507 5505 5502 5499 5497 5494 5492 5489 5487 5484 5481 5478 5475 5472 5469 5466 5463
5491 5493 5495 5497 5499 5500 5502 5503 5505 5506 5507 5507 5508 5508 5509 5509 5509 5508 5508 5507 5506 5505 5503 5501 5499 5496 5494 5491 5489 5487 5484 5482 5480 5478 5475 5472 5470 5467 5464 5461 5458 5455 5453
5481 5483 5485 5486 5488 5490 5491 5492 5494 5495 5496 5496 5497 5497 5497 5497 5496 5496 5495 5495 5494 5492 5490 5488 5485 5483 5481 5479 5477 5474 5472 5471 5468 5466 5464 5461 5458 5456 5453 5450 5448 5445 5442
5471 5473 5474 5476 5477 5479 5480 5481 5482 5483 5484 5485 5485 5485 5485 5485 5485 5484 5483 5482 5480 5479 5477 5474 5472 5470 5468 5466 5465 5463 5461 5459 5457 5455 5452 5450 5447 5445 5442 5440 5437 5435 5432
5462 5463 5464 5465 5466 5468 5469 5470 5471 5471 5472 5473 5473 5473 5473 5473 5472 5471 5470 5468 5467 5465 5463 5461 5459 5458 5456 5454 5453 5451 5450 5448 5446 5443 5441 5439 5437 5434 5432 5429 5427 5425 5422
5452 5453 5454 5455 5456 5457 5457 5458 5459 5460 5460 5461 5461 5461 5460 5460 5459 5458 5456 5455 5453 5452 5450 5449 5447 5446 5444 5443 5441 5440 5438 5436 5435 5433 5430 5428 5426 5424 5422 5419 5417 5415 5412
5443 5444 5444 5445 5445 5446 5446 5447 5447 5448 5448 5448 5448 5448 5448 5447 5446 5445 5443 5442 5440 5439 5437 5436 5435 5434 5432 5431 5429 5428 5427 5425 5423 5422 5420 5418 5415 5413 5412 5410 5407 5405 5403
5433 5434 5434 5434 5435 5435 5435 5435 5436 5436 5436 5436 5436 5435 5435 5434 5433 5432 5430 5429 5428 5426 5425 5424 5423 5422 5421 5419 5418 5416 5415 5414 5412 5410 5409 5407 5405 5403 5402 5400 5398 5395 5393
5423 5423 5423 5423 5424 5424 5424 5424 5424 5424 5424 5424 5424 5423 5423 5422 5421 5420 5419 5417 5416 5415 5413 5412 5411 5410 5409 5408 5406 5405 5404 5402 5401 5400 5398 5397 5396 5394 5392 5391 5389 5387 5384
5413 5413 5413 5413 5413 5413 5413 5413 5413 5413 5413 5413 5412 5412 5412 5411 5410 5409 5408 5406 5405 5404 5403 5402 5400 5399 5398 5397 5396 5395 5393 5392 5391 5389 5388 5387 5386 5385 5383 5382 5380 5378 5375